SBBRSBGO

Guest
Details From SBBR - Brasilia Presidente Juscelino Kubitsch
To SBGO - Santo Genoveva
Flight Number -
Tags generated
Created
Modified
Stats Distance 88 nm / 163 km
Max Altitude 3,800 ft / 1,158 m
Waypoints 3
Social Downloads 1
Likes 0
Share VATSIM

Download

Looking for another format? Having issues loading an existing format? Contact us
Advertisement - Login to hide

Notes

Basic altitude profile: - Ascent Rate: 1800ft/min - Ascent Speed: 80kts - Cruise Altitude: 7000ft - Cruise Speed: 120kts - Descent Rate: 500ft/min - Descent Speed: 100kts

Route

SBBR GOMAL SBGO

ID Type Via Altitude Latitude Longitude Leg Dist Tot Dist Heading (true) Name
O SBBR APT - 0 ft / 0 m -15.87110˚ -47.91863˚ - 0 nm - Brasilia Presidente Juscelino Kubitsch
GOMAL FIX - 3,800 ft / 1,158 m -16.49500˚ -48.99767˚ 72 nm 72 nm 239° / 239° -
O SBGO APT - 0 ft / 0 m -16.63203˚ -49.22069˚ 15 nm 87 nm 237° / 237° Santo Genoveva

Altitude Profile

Advertisement - Login to hide

SBBR

Details ICAO SBBR (BSB)
Name Brasilia Presidente Juscelino Kubitsch
Region Brazil
Timezone America/Sao_Paulo (UTC-3.0)
Stats Elevation 3,479 ft / 1,060 m (AMSL)
Location -15.871101° -47.918626°
Runways 2
Magnetic Variation 21.594° W

METAR

SBBR 261400Z 07012KT CAVOK 21/13 Q1023

Decode

TAF

TAF SBBR 261000Z 2612/2712 09005KT 9999 FEW018 TX24/2618Z TN14/2708Z BECMG 2614/2616 SCT035 PROB30 2615/2619 11005KT SCT035 FEW045TCU BECMG 2621/2623 12006KT CAVOK RMK PDS

Decode

Departure Runways

ID Width Length Bearing (true) Bearing (mag) Surface Threshold Offset Overrun Length
11L 148 ft / 45 m 10,493 ft / 3,198 m 86.35° 107.94° Asphalt 0 ft / 0 m 200 ft / 61 m
11R 148 ft / 45 m 10,839 ft / 3,304 m 86.00° 107.59° Asphalt 2,635 ft / 803 m 200 ft / 61 m
29L 148 ft / 45 m 10,839 ft / 3,304 m 265.99° 287.58° Asphalt 0 ft / 0 m 200 ft / 61 m
29R 148 ft / 45 m 10,493 ft / 3,198 m 266.34° 287.93° Asphalt 0 ft / 0 m 200 ft / 61 m

SBGO

Details ICAO SBGO (GYN)
Name Santo Genoveva
Region Brazil
Timezone America/Sao_Paulo (UTC-3.0)
Stats Elevation 2,450 ft / 747 m (AMSL)
Location -16.632032° -49.220686°
Runways 1
Magnetic Variation 21.040° W

METAR

SBGO 261300Z 09013KT CAVOK 24/15 Q1022

Decode

TAF

TAF SBGO 261000Z 2612/2712 10006KT CAVOK TX27/2617Z TN16/2708Z PROB30 2615/2619 9999 FEW030 BECMG 2623/2701 13004KT CAVOK BECMG 2701/2703 15005KT RMK PDS

Decode

Destination Runways

ID Width Length Bearing (true) Bearing (mag) Surface Threshold Offset Overrun Length
14 148 ft / 45 m 8,208 ft / 2,502 m 120.42° 141.46° Asphalt 0 ft / 0 m 0 ft / 0 m
32 148 ft / 45 m 8,208 ft / 2,502 m 300.41° 321.45° Asphalt 980 ft / 299 m 0 ft / 0 m

Popular Alternatives